Content
SEND FEEDBACK

Daily
Averages
Monthly
Summary
United States of America

BROADVIEW, NEW MEXICO


Home > North America > United States > New Mexico
Elevation: 4100 feet     Latitude: 34 40N     Longitude: 103 03W

WEATHER
 
SELECT A DAY
Number of Records: 448,126;   Date Range: 1/1/95 - 8/12/14
 
SHARE

PRINT THIS DATA

[ ← Previous Day ]
WEATHER ALMANAC - JANUARY 23, 2013
[ Next Day → ]
[ °C ]   °F
Weather ElementAverageHighLow
Temperature47.9 °F71.6 °F (1:55 pm)24.8 °F (4:35 am)
Dewpoint14.7 °F21.2 °F (8:35 am)8.6 °F (11:35 pm)
Humidity31.5 %64 % (6:55 am)12 % (1:55 pm)
Barometer30.20 in30.27 in (9:35 am)30.17 in (2:15 pm)
Wind Speed9.1 mph17.3 mph (8:55 pm)
Weather ElementAverage
Visibility9.9 mi
Wind DirectionW (265.6 °)

Weather ElementTotal
Precipitation---
Heating Degree Days16.8 (Base 65)
Averaged from 70 records on January 23, 2013
WEATHER CONDITIONS BREAKOUT
WIND DIRECTION BREAKOUT
WEATHER BY HOUR - JANUARY 23, 2013
[ °C ]   °F
Local TimeTemperatureDewpointHumidityBarometerVisibilityWind DirectionWind SpeedGust SpeedPrecipitationEventsConditions
12:35 AM37.4 °F19.4 °F48 %30.18 in10.0 miWNW (290°)10.4 mphClear
12:55 AM35.6 °F17.6 °F48 %30.19 in10.0 miWest (280°)10.4 mphClear
1:15 AM33.8 °F17.6 °F52 %30.19 in10.0 miWNW (290°)8.1 mphClear
1:35 AM32.0 °F15.8 °F51 %30.19 in10.0 miWNW (290°)6.9 mphClear
1:55 AM30.2 °F14.0 °F51 %30.19 in10.0 miWNW (290°)8.1 mphClear
2:15 AM30.2 °F14.0 °F51 %30.19 in10.0 miWest (280°)6.9 mphClear
2:35 AM30.2 °F15.8 °F55 %30.19 in10.0 miWest (270°)5.8 mphClear
2:55 AM30.2 °F14.0 °F51 %30.19 in10.0 miCalmClear
3:15 AM28.4 °F12.2 °F51 %30.19 in10.0 miWest (270°)5.8 mphClear
3:35 AM28.4 °F12.2 °F51 %30.19 in10.0 miWNW (300°)6.9 mphClear
3:55 AM28.4 °F12.2 °F51 %30.18 in10.0 miNW (320°)4.6 mphClear
4:15 AM28.4 °F12.2 °F51 %30.18 in10.0 miWNW (290°)5.8 mphClear
4:35 AM24.8 °F12.2 °F59 %30.18 in10.0 miWSW (240°)8.1 mphClear
4:55 AM28.4 °F14.0 °F55 %30.19 in10.0 miWest (260°)6.9 mphClear
5:15 AM26.6 °F12.2 °F55 %30.19 in10.0 miWest (280°)5.8 mphClear
5:35 AM28.4 °F14.0 °F55 %30.19 in10.0 miWest (280°)8.1 mphClear
5:55 AM26.6 °F14.0 °F59 %30.19 in10.0 miWNW (300°)8.1 mphClear
6:15 AM26.6 °F14.0 °F59 %30.19 in10.0 miWNW (290°)10.4 mphClear
6:35 AM26.6 °F14.0 °F59 %30.20 in10.0 miWNW (300°)6.9 mphClear
6:55 AM26.6 °F15.8 °F64 %30.21 in10.0 miWest (280°)6.9 mphClear
7:15 AM28.4 °F15.8 °F59 %30.22 in10.0 miWNW (290°)8.1 mphClear
7:35 AM30.2 °F15.8 °F55 %30.22 in10.0 miNW (310°)6.9 mphClear
7:55 AM33.8 °F19.4 °F56 %30.23 in10.0 miNW (320°)8.1 mphClear
8:15 AM39.2 °F19.4 °F45 %30.24 in10.0 miNW (310°)6.9 mphClear
8:35 AM44.6 °F21.2 °F39 %30.25 in10.0 miNNW (330°)10.4 mphClear
8:55 AM46.4 °F21.2 °F37 %30.26 in7.0 miNNW (330°)11.5 mphClear
9:15 AM51.8 °F21.2 °F30 %30.26 in10.0 miNNW (330°)9.2 mphClear
9:35 AM53.6 °F21.2 °F28 %30.27 in9.0 miNNW (330°)9.2 mphClear
9:55 AM57.2 °F21.2 °F25 %30.27 in10.0 miNW (310°)8.1 mphClear
10:15 AM60.8 °F21.2 °F22 %30.27 in10.0 miWNW (290°)8.1 mphClear
10:35 AM62.6 °F21.2 °F20 %30.27 in10.0 miWNW (290°)8.1 mphClear
10:55 AM62.6 °F19.4 °F19 %30.25 in10.0 miWest (260°)9.2 mphClear
11:15 AM64.4 °F17.6 °F16 %30.25 in10.0 miWest (260°)6.9 mphClear
11:35 AM64.4 °F17.6 °F16 %30.24 in10.0 miWest (270°)6.9 mphClear
11:55 AM66.2 °F17.6 °F15 %30.22 in10.0 miWNW (290°)6.9 mphClear
12:15 PM68.0 °F17.6 °F15 %30.21 in10.0 miWest (260°)6.9 mphClear
12:35 PM68.0 °F17.6 °F15 %30.21 in10.0 miWNW (300°)6.9 mphClear
12:55 PM69.8 °F17.6 °F14 %30.19 in10.0 miWest (260°)5.8 mphClear
1:15 PM69.8 °F17.6 °F14 %30.19 in10.0 miWest (260°)3.5 mphClear
1:35 PM69.8 °F15.8 °F13 %30.18 in10.0 miSW (230°)6.9 mphClear
1:55 PM71.6 °F15.8 °F12 %30.18 in10.0 miSSW (210°)8.1 mphClear
2:15 PM71.6 °F15.8 °F12 %30.17 in10.0 miSW (230°)10.4 mphClear
2:35 PM69.8 °F15.8 °F13 %30.17 in10.0 miSW (230°)10.4 mphClear
2:55 PM69.8 °F15.8 °F13 %30.17 in10.0 miSW (230°)10.4 mphClear
3:15 PM69.8 °F14.0 °F12 %30.17 in10.0 miWSW (240°)12.7 mphClear
3:35 PM69.8 °F14.0 °F12 %30.17 in10.0 miWSW (240°)13.8 mphClear
3:55 PM68.0 °F14.0 °F12 %30.17 in10.0 miWSW (240°)13.8 mphClear
4:15 PM66.2 °F12.2 °F12 %30.18 in10.0 miWSW (250°)10.4 mphClear
4:35 PM64.4 °F12.2 °F13 %30.18 in10.0 miWSW (250°)6.9 mphClear
4:55 PM62.6 °F12.2 °F14 %30.18 in10.0 miSW (230°)4.6 mphClear
5:15 PM59.0 °F14.0 °F17 %30.18 in10.0 miSW (220°)3.5 mphClear
5:35 PM55.4 °F12.2 °F18 %30.18 in10.0 miSW (230°)6.9 mphClear
5:55 PM51.8 °F14.0 °F22 %30.18 in10.0 miWSW (240°)10.4 mphClear
6:15 PM51.8 °F12.2 °F21 %30.19 in10.0 miWSW (250°)8.1 mphClear
6:35 PM48.2 °F12.2 °F24 %30.19 in10.0 miWSW (240°)4.6 mphClear
6:55 PM46.4 °F14.0 °F27 %30.19 in10.0 miWSW (240°)10.4 mphClear
7:15 PM50.0 °F14.0 °F24 %30.19 in10.0 miWSW (250°)12.7 mphClear
7:35 PM50.0 °F12.2 °F22 %30.19 in10.0 miWest (260°)12.7 mphClear
7:55 PM48.2 °F10.4 °F22 %30.19 in10.0 miWest (260°)9.2 mphClear
8:15 PM46.4 °F10.4 °F23 %30.19 in10.0 miWest (260°)12.7 mphClear
8:35 PM48.2 °F10.4 °F22 %30.19 in10.0 miWest (260°)13.8 mphClear
8:55 PM50.0 °F10.4 °F20 %30.19 in10.0 miWSW (250°)17.3 mphClear
9:15 PM48.2 °F10.4 °F22 %30.19 in10.0 miWSW (250°)16.1 mphClear
9:35 PM48.2 °F10.4 °F22 %30.19 in10.0 miWest (260°)15.0 mphClear
9:55 PM46.4 °F10.4 °F23 %30.19 in10.0 miWest (260°)13.8 mphClear
10:15 PM44.6 °F10.4 °F25 %30.19 in10.0 miWest (260°)12.7 mphClear
10:55 PM44.6 °F10.4 °F25 %30.19 in10.0 miWSW (250°)13.8 mphClear
11:15 PM44.6 °F10.4 °F25 %30.19 in10.0 miWSW (250°)16.1 mphClear
11:35 PM44.6 °F8.6 °F23 %30.18 in10.0 miWest (260°)15.0 mphClear
11:55 PM44.6 °F8.6 °F23 %30.18 in10.0 miWest (260°)16.1 mphClear
Hourly data recorded from KCVN, located miles away from Broadview, New Mexico







STORIES FROM OUR PARTNERS